Location: Rock Island IL
(41.5000°N, 90.5500°W)
Time: 12:01:40
(UTC-05:00)

Daily predictions for brighter satellites

Satellite Brightness Start Highest point End
(mag) Time Altitude Azimuth Time Altitude Azimuth Time Altitude Azimuth
BREEZE-M DEB (TANK) 4.0 20:02:58 10° SW 20:06:33 63° SE 20:18:21 10° ENE
Cosmos 1934 Rocket 4.1 20:02:03 10° S 20:08:12 89° W 20:14:30 10° N
DELTA 2 R/B (1) 4.2 20:03:24 10° W 20:08:47 50° SSW 20:14:07 10° SE
Meteor 1-29 3.1 20:06:54 10° N 20:10:23 80° WNW 20:13:51 10° SSW
Cosmos 1980 Rocket 3.1 20:05:55 10° SSE 20:10:33 27° ESE 20:15:14 10° NE
Helios 1A 3.5 20:10:01 10° S 20:14:09 64° WSW 20:18:20 10° NNW
RESURS DK-1 3.2 20:10:24 10° N 20:14:14 35° ENE 20:18:02 10° SE
Cosmos 2369 4.1 20:10:41 10° SSW 20:16:20 70° WNW 20:22:03 10° NNE
Resurs 01 Rocket 2.3 20:12:59 10° S 20:17:21 60° WSW 20:21:46 10° NNW
Cosmos 1814 Rocket 4.4 20:13:39 10° S 20:18:35 40° ESE 20:23:32 10° NE
H-2A R/B 3.1 20:15:11 10° SSE 20:18:57 49° ENE 20:22:47 10° N
Cosmos 1656 3.6 20:15:24 10° SSW 20:20:59 75° ESE 20:26:33 10° NNE
FENGYUN 3A 3.7 20:15:47 10° SSE 20:21:04 67° ENE 20:26:23 10° N
CZ-4B DEB 2.8 20:20:43 10° SSE 20:23:59 87° WSW 20:27:17 10° NNW
Cosmos 2263 Rocket 4.2 20:31:34 10° NNE 20:33:30 12° NE 20:35:26 10° ENE
Iridium 4 Rocket 3.2 20:32:45 10° N 20:37:39 65° E 20:42:05 10° SSE
Lacrosse 5 1.9 20:32:38 10° NW 20:37:44 88° NE 20:41:56 15° SE
EO 1 Delta rocket 4.1 20:35:18 10° N 20:40:08 89° E 20:45:53 10° S
Cosmos 1500 3.1 20:36:45 10° S 20:40:28 66° E 20:44:13 10° NNE
Cosmos 1825 Rocket 4.3 20:37:26 10° N 20:41:29 34° ENE 20:44:13 18° SE
Cosmos 2227 Rocket 3.6 20:36:18 10° NW 20:41:31 38° WSW 20:46:41 10° S
Cosmos 1975 3.2 20:40:02 10° SSW 20:44:07 69° W 20:48:13 10° N
CZ-2D R/B 3.5 20:41:10 10° S 20:45:01 72° W 20:48:55 10° NNW
Cosmos 2322 Rocket 3.4 20:43:35 17° SE 20:45:29 20° E 20:49:23 10° NE
Cosmos 1340 3.5 20:42:31 10° N 20:45:57 31° ENE 20:47:32 22° ESE
Lacrosse 5 rocket 3.5 20:44:08 10° W 20:46:38 17° WSW 20:49:05 10° SSW
Cosmos 2084 4.2 20:43:50 10° NW 20:47:46 48° WSW 20:51:53 10° SSE
SPOT 5 4.2 20:47:47 18° E 20:49:35 22° ENE 20:53:10 10° NNE
Envisat 3.6 20:49:38 19° SE 20:52:40 38° ENE 20:57:21 10° N
Cosmos 1937 Rocket 3.5 20:48:11 10° NNW 20:53:29 80° ENE 20:58:05 14° SSE
Cosmos 1953 Rocket 4.3 20:49:42 10° N 20:53:48 35° ENE 20:55:42 24° ESE
H-2A R/B 3.2 20:55:01 22° E 20:56:04 24° ENE 20:59:28 10° NNE
Cosmos 2173 Rocket 4.0 20:49:52 10° S 20:56:06 61° E 21:02:20 10° NNE
Cosmos 2297 Rocket 3.4 20:50:58 10° NW 20:56:14 41° WSW 21:01:29 10° S
USA 186 2.2 20:53:49 10° S 20:56:45 52° W 20:59:29 10° NNW
Cosmos 990 Rocket 4.0 20:55:44 10° NNW 21:00:59 69° ENE 21:04:27 21° SSE
CZ-4 DEB 2.6 21:03:21 38° SE 21:04:22 64° ENE 21:07:29 10° N
ALOS 3.4 20:59:58 10° S 21:04:24 43° W 21:08:52 10° NNW
Cosmos 967 Rocket 4.5 20:58:07 10° NNW 21:04:28 71° ENE 21:08:25 24° SE
Cosmos 2360 4.3 20:59:20 10° S 21:04:52 54° ESE 21:10:27 10° NNE
Cosmos 2227 4.2 21:03:30 10° NNW 21:09:15 66° ENE 21:12:25 27° SE
OAO 2 Rocket 4.2 21:06:16 10° WSW 21:10:48 35° S 21:12:34 27° SSE
Meteor 1-21 4.3 21:05:49 10° N 21:11:36 66° ENE 21:15:23 22° SSE
Cosmos 1758 Rocket 3.8 21:07:55 10° N 21:12:06 45° ENE 21:13:13 37° ESE
ERS-1 Rocket 2.9 21:08:47 21° SSE 21:12:09 74° ENE 21:17:10 10° N
Cosmos 2100 Rocket 4.0 21:08:27 10° S 21:14:44 89° W 21:20:59 10° N
YAOGAN 11 4.1 21:11:55 22° SSE 21:14:50 88° ENE 21:19:18 10° NNW
BREEZE-M DEB (TANK) 2.3 21:14:19 10° NW 21:16:33 51° NNE 21:17:24 39° E
Tiangong 1 2.0 21:18:51 10° W 21:21:38 36° SSW 21:21:38 36° SSW
Cosmos 1939 Rocket 2.8 21:23:17 38° SSE 21:24:50 85° ENE 21:29:02 10° N
Cosmos 1743 3.1 21:21:10 10° SSW 21:25:02 64° W 21:28:56 10° N
Cosmos 1763 Rocket 3.4 21:20:12 10° SSW 21:25:18 87° WNW 21:30:24 10° NNE
H-2A R/B 3.9 21:25:29 14° ENE 21:25:29 14° ENE 21:27:49 10° NNE
deb Chang Zheng 4 3.8 21:21:54 10° NNE 21:26:14 50° E 21:26:47 47° SE
Tsikada Rocket 4.3 21:21:52 10° N 21:28:06 51° ENE 21:30:23 35° SE
Cosmos 1697 Rocket 4.0 21:24:28 10° SW 21:29:48 42° WNW 21:35:10 10° NNE
Cosmos 2061 Rocket 4.2 21:25:01 10° SSW 21:31:19 74° W 21:37:33 10° N
Cosmos 1459 Rocket 4.4 21:32:06 10° SSW 21:38:04 62° W 21:44:09 10° N
ARGOS 3.8 21:39:04 36° E 21:39:34 36° ENE 21:44:28 10° N
Cosmos 1606 Rocket 4.0 21:38:26 15° SSW 21:42:01 62° W 21:46:26 10° N
Cosmos 2058 Rocket 3.0 21:40:58 51° S 21:42:04 82° E 21:46:37 10° N
Cosmos 1125 Rocket 3.5 21:38:11 10° NNW 21:43:23 66° ENE 21:44:17 55° ESE
SL-16 R/B 2.2 21:41:43 38° SSE 21:43:42 58° ESE 21:49:16 10° NNE
SPOT 1/Viking Rocket 4.0 21:44:10 42° E 21:44:30 42° ENE 21:49:23 10° N
Cosmos 1725 Rocket 3.9 21:42:59 30° S 21:46:11 73° E 21:52:26 10° NNE
MetOp-B 4.1 21:46:30 54° SE 21:47:33 68° ENE 21:52:53 10° N
Cosmos 2098 Rocket 3.8 21:43:33 16° S 21:49:10 87° E 21:54:40 10° N
Cosmos 841 Rocket 4.0 21:45:30 10° SSW 21:50:39 60° WNW 21:55:50 10° NNE
ASTEX 1 3.3 21:45:44 10° N 21:50:46 84° E 21:51:52 55° S
Cosmos 1980 Rocket 3.3 21:48:53 10° SW 21:54:17 44° WNW 21:59:45 10° NNE
Cosmos 2360 Rocket 4.2 21:58:32 14° NE 21:58:32 14° NE 21:59:34 10° NE
Cosmos 540 Rocket 3.7 21:55:48 51° ENE 21:55:48 51° ENE 22:00:00 10° NNE
Cosmos 1842 3.9 21:59:36 10° NNW 22:03:13 51° W 22:03:13 51° W
YAOGAN 6 3.7 22:05:28 43° NNW 22:05:28 43° NNW 22:08:05 10° NNW
Cosmos 1666 3.6 22:04:42 45° W 22:04:45 45° W 22:08:25 10° N
Cosmos 2233 Rocket 3.9 22:06:52 63° ESE 22:07:24 66° E 22:13:35 10° NNE
Cosmos 372 Rocket 4.0 22:08:53 10° NNW 22:13:41 72° NNE 22:13:41 72° NNE
Cosmos 332 Rocket 4.0 22:16:29 68° N 22:16:29 68° N 22:20:48 10° NNE
Cosmos 2263 Rocket 2.2 22:12:58 10° NNW 22:18:16 66° NE 22:18:16 66° NE
Lacrosse 5 4.1 22:17:18 10° W 22:20:02 15° WSW 22:21:09 14° SW
SPOT 5 3.7 22:27:02 42° WSW 22:27:23 43° W 22:31:56 10° NNW
SL-19 R/B 4.1 22:23:02 10° NNE 22:28:11 77° NNW 22:28:11 77° NNW
Cosmos 2322 Rocket 2.7 22:25:05 19° SW 22:29:00 57° WNW 22:34:34 10° NNE
H-2A R/B 3.7 22:32:10 27° W 22:32:10 27° W 22:35:33 10° NW
Cosmos 2228 4.3 22:32:39 37° WNW 22:32:39 37° WNW 22:36:19 10° N
CZ-4B R/B 4.4 22:34:58 10° NNE 22:38:03 40° N 22:38:03 40° N
Terra 3.2 22:42:36 32° NNE 22:42:36 32° NNE 22:45:19 10° N
Meteor 2-5 Rocket 3.9 22:39:49 10° N 22:45:04 71° NNW 22:45:04 71° NNW
Meteor 1-24 Rocket 4.4 22:46:42 10° N 22:51:23 52° NNE 22:51:23 52° NNE
Cosmos 1464 Rocket 4.5 22:58:08 53° NNE 22:58:08 53° NNE 23:02:58 10° N
ATLAS CENTAUR R/B 4.3 23:02:49 57° E 23:02:49 57° E 23:21:08 10° NE
H-2A R/B 3.2 23:06:08 37° NNW 23:06:08 37° NNW 23:09:08 10° NNW
Cosmos 2278 Rocket 4.1 23:08:18 10° N 23:11:26 21° NNE 23:11:26 21° NNE
USA 215 3.5 23:24:23 64° N 23:24:23 64° N 23:30:03 10° NW
SL-16 R/B 4.3 23:23:47 10° WSW 23:28:12 23° NW 23:32:39 10° N
Cosmos 1844 Rocket 4.1 23:24:03 10° NNW 23:27:15 33° N 23:27:15 33° N
Cosmos 2360 Rocket 3.6 23:40:15 35° NNW 23:40:15 35° NNW 23:44:01 10° NNE
BREEZE-M DEB (TANK) 4.5 23:19:38 10° WNW 23:38:37 61° WSW 23:38:37 61° WSW
